Time,TemperatureF,DewpointF,PressureIn,WindDirection,WindDirectionDegrees,WindSpeedMPH,WindSpeedGustMPH,Humidity,HourlyPrecipIn,Conditions,Clouds,dailyrainin,SoftwareType,DateUTC
2013-02-16 00:05:00,11.2,6.0,30.28,NNW,328,3.0,10.0,80,0.00,,,0.00,weatherlink.com 1.10,2013-02-16 06:05:00,
2013-02-16 00:20:00,11.1,6.0,30.28,NW,325,1.0,7.0,80,0.00,,,0.00,weatherlink.com 1.10,2013-02-16 06:20:00,
2013-02-16 00:35:00,11.0,6.0,30.28,NW,323,1.0,9.0,80,0.00,,,0.00,weatherlink.com 1.10,2013-02-16 06:35:00,
2013-02-16 00:50:00,11.0,6.0,30.27,WNW,299,1.0,7.0,80,0.00,,,0.00,weatherlink.com 1.10,2013-02-16 06:50:00,
2013-02-16 01:05:00,11.0,6.0,30.27,NW,312,2.0,9.0,81,0.00,,,0.00,weatherlink.com 1.10,2013-02-16 07:05:00,
2013-02-16 01:20:00,11.0,6.0,30.27,NNW,339,2.0,11.0,81,0.00,,,0.00,weatherlink.com 1.10,2013-02-16 07:20:00,
2013-02-16 01:35:00,10.9,6.0,30.26,NNW,341,2.0,9.0,81,0.00,,,0.00,weatherlink.com 1.10,2013-02-16 07:35:00,
2013-02-16 01:50:00,10.9,6.0,30.26,NW,323,5.0,12.0,81,0.00,,,0.00,weatherlink.com 1.10,2013-02-16 07:50:00,
2013-02-16 02:05:00,11.1,6.0,30.26,NW,309,1.0,11.0,81,0.00,,,0.00,weatherlink.com 1.10,2013-02-16 08:05:00,
2013-02-16 02:20:00,11.3,7.0,30.26,NW,307,7.0,11.0,82,0.00,,,0.00,weatherlink.com 1.10,2013-02-16 08:20:00,
2013-02-16 02:35:00,11.2,6.0,30.26,NW,314,5.0,10.0,81,0.00,,,0.00,weatherlink.com 1.10,2013-02-16 08:35:00,
2013-02-16 02:50:00,11.3,7.0,30.25,NNW,327,3.0,14.0,81,0.00,,,0.00,weatherlink.com 1.10,2013-02-16 08:50:00,
2013-02-16 03:05:00,11.5,7.0,30.25,NNW,346,4.0,12.0,81,0.00,,,0.00,weatherlink.com 1.10,2013-02-16 09:05:00,
2013-02-16 03:20:00,11.7,7.0,30.25,NNW,334,9.0,13.0,81,0.00,,,0.00,weatherlink.com 1.10,2013-02-16 09:20:00,
2013-02-16 03:35:00,11.7,7.0,30.25,NNW,344,6.0,10.0,81,0.00,,,0.00,weatherlink.com 1.10,2013-02-16 09:35:00,
2013-02-16 03:50:00,11.8,7.0,30.24,NW,326,6.0,11.0,81,0.00,,,0.00,weatherlink.com 1.10,2013-02-16 09:50:00,
2013-02-16 04:05:00,11.7,7.0,30.24,NNW,334,2.0,9.0,81,0.00,,,0.00,weatherlink.com 1.10,2013-02-16 10:05:00,
2013-02-16 04:20:00,11.7,7.0,30.23,NNW,333,2.0,8.0,81,0.00,,,0.00,weatherlink.com 1.10,2013-02-16 10:20:00,
2013-02-16 04:36:00,11.7,7.0,30.23,NNW,336,7.0,9.0,81,0.00,,,0.00,weatherlink.com 1.10,2013-02-16 10:36:00,
2013-02-16 04:50:00,11.7,7.0,30.23,NNW,327,0.0,9.0,81,0.00,,,0.00,weatherlink.com 1.10,2013-02-16 10:50:00,
2013-02-16 05:06:00,11.7,7.0,30.23,NNW,332,3.0,8.0,81,0.00,,,0.00,weatherlink.com 1.10,2013-02-16 11:06:00,
2013-02-16 05:20:00,11.8,7.0,30.23,NW,319,3.0,8.0,81,0.00,,,0.00,weatherlink.com 1.10,2013-02-16 11:20:00,
2013-02-16 05:35:00,11.9,7.0,30.23,NNW,337,5.0,8.0,81,0.00,,,0.00,weatherlink.com 1.10,2013-02-16 11:35:00,
2013-02-16 05:50:00,12.1,7.0,30.22,NNW,331,2.0,8.0,81,0.00,,,0.00,weatherlink.com 1.10,2013-02-16 11:50:00,
2013-02-16 06:06:00,12.2,7.0,30.22,NNW,331,0.0,5.0,81,0.00,,,0.00,weatherlink.com 1.10,2013-02-16 12:06:00,
2013-02-16 06:21:00,12.4,8.0,30.21,NNW,331,2.0,6.0,81,0.00,,,0.00,weatherlink.com 1.10,2013-02-16 12:21:00,
2013-02-16 06:36:00,12.6,8.0,30.21,NNW,331,1.0,5.0,81,0.00,,,0.00,weatherlink.com 1.10,2013-02-16 12:36:00,
2013-02-16 06:51:00,12.7,8.0,30.21,NNW,331,1.0,5.0,81,0.00,,,0.00,weatherlink.com 1.10,2013-02-16 12:51:00,
2013-02-16 07:06:00,12.8,8.0,30.21,NNW,331,0.0,4.0,81,0.00,,,0.00,weatherlink.com 1.10,2013-02-16 13:06:00,
2013-02-16 07:21:00,12.8,8.0,30.21,NW,325,5.0,7.0,81,0.00,,,0.00,weatherlink.com 1.10,2013-02-16 13:21:00,
2013-02-16 07:36:00,13.0,8.0,30.22,NW,326,1.0,5.0,81,0.00,,,0.00,weatherlink.com 1.10,2013-02-16 13:36:00,
2013-02-16 07:51:00,13.0,8.0,30.22,NNW,331,4.0,8.0,81,0.00,,,0.00,weatherlink.com 1.10,2013-02-16 13:51:00,
2013-02-16 08:06:00,13.2,8.0,30.22,NW,325,4.0,9.0,81,0.00,,,0.00,weatherlink.com 1.10,2013-02-16 14:06:00,
2013-02-16 08:21:00,13.4,9.0,30.22,NNW,329,0.0,4.0,82,0.00,,,0.00,weatherlink.com 1.10,2013-02-16 14:21:00,
2013-02-16 08:36:00,13.7,9.0,30.22,NW,309,0.0,5.0,81,0.00,,,0.00,weatherlink.com 1.10,2013-02-16 14:36:00,
2013-02-16 08:51:00,14.1,10.0,30.22,WNW,298,2.0,6.0,82,0.00,,,0.00,weatherlink.com 1.10,2013-02-16 14:51:00,
2013-02-16 09:06:00,14.2,9.0,30.22,West,280,1.0,6.0,81,0.00,,,0.00,weatherlink.com 1.10,2013-02-16 15:06:00,
2013-02-16 09:21:00,14.4,9.0,30.17,WNW,283,1.0,5.0,80,0.00,,,0.00,weatherlink.com 1.10,2013-02-16 15:21:00,
2013-02-16 09:36:00,14.8,10.0,30.17,WNW,284,1.0,5.0,80,0.00,,,0.00,weatherlink.com 1.10,2013-02-16 15:36:00,
2013-02-16 09:51:00,15.0,9.0,30.16,WNW,284,0.0,5.0,78,0.00,,,0.00,weatherlink.com 1.10,2013-02-16 15:51:00,
2013-02-16 10:09:00,15.6,10.0,30.16,West,275,1.0,8.0,79,0.00,,,0.00,weatherlink.com 1.10,2013-02-16 16:09:00,
2013-02-16 10:21:00,15.6,10.0,30.16,West,273,2.0,7.0,77,0.00,,,0.00,weatherlink.com 1.10,2013-02-16 16:21:00,
2013-02-16 10:36:00,17.2,11.0,30.15,West,273,1.0,5.0,78,0.00,,,0.00,weatherlink.com 1.10,2013-02-16 16:36:00,
2013-02-16 10:51:00,17.5,11.0,30.15,West,271,2.0,5.0,75,0.00,,,0.00,weatherlink.com 1.10,2013-02-16 16:51:00,
2013-02-16 11:06:00,18.5,12.0,30.14,West,275,6.0,7.0,76,0.00,,,0.00,weatherlink.com 1.10,2013-02-16 17:06:00,
2013-02-16 11:21:00,18.8,12.0,30.14,West,273,1.0,5.0,73,0.00,,,0.00,weatherlink.com 1.10,2013-02-16 17:21:00,
2013-02-16 11:36:00,20.2,13.0,30.14,West,273,1.0,4.0,72,0.00,,,0.00,weatherlink.com 1.10,2013-02-16 17:36:00,
2013-02-16 11:51:00,20.3,12.0,30.14,West,273,3.0,5.0,71,0.00,,,0.00,weatherlink.com 1.10,2013-02-16 17:51:00,
2013-02-16 12:06:00,21.3,13.0,30.13,West,273,1.0,5.0,70,0.00,,,0.00,weatherlink.com 1.10,2013-02-16 18:06:00,
2013-02-16 12:21:00,22.1,13.0,30.13,West,273,0.0,5.0,69,0.00,,,0.00,weatherlink.com 1.10,2013-02-16 18:21:00,
2013-02-16 12:36:00,22.7,14.0,30.12,West,273,2.0,6.0,68,0.00,,,0.00,weatherlink.com 1.10,2013-02-16 18:36:00,
2013-02-16 12:51:00,22.3,14.0,30.11,West,273,1.0,3.0,69,0.00,,,0.00,weatherlink.com 1.10,2013-02-16 18:51:00,
2013-02-16 13:06:00,22.5,14.0,30.11,West,273,2.0,5.0,70,0.00,,,0.00,weatherlink.com 1.10,2013-02-16 19:06:00,
2013-02-16 13:22:00,23.7,15.0,30.11,West,273,1.0,5.0,68,0.00,,,0.00,weatherlink.com 1.10,2013-02-16 19:22:00,
2013-02-16 13:36:00,23.6,14.0,30.11,West,273,3.0,6.0,66,0.00,,,0.00,weatherlink.com 1.10,2013-02-16 19:36:00,
2013-02-16 13:51:00,25.3,15.0,30.10,West,273,3.0,5.0,66,0.00,,,0.00,weatherlink.com 1.10,2013-02-16 19:51:00,
2013-02-16 14:07:00,25.3,14.0,30.10,West,269,0.0,7.0,63,0.00,,,0.00,weatherlink.com 1.10,2013-02-16 20:07:00,
2013-02-16 14:22:00,26.2,15.0,30.09,West,269,3.0,6.0,63,0.00,,,0.00,weatherlink.com 1.10,2013-02-16 20:22:00,
2013-02-16 14:37:00,25.5,14.0,30.09,West,270,4.0,7.0,63,0.00,,,0.00,weatherlink.com 1.10,2013-02-16 20:37:00,
2013-02-16 14:52:00,25.9,16.0,30.09,West,274,1.0,7.0,65,0.00,,,0.00,weatherlink.com 1.10,2013-02-16 20:52:00,
2013-02-16 15:07:00,25.2,15.0,30.08,West,273,1.0,4.0,64,0.00,,,0.00,weatherlink.com 1.10,2013-02-16 21:07:00,
2013-02-16 15:22:00,25.6,15.0,30.08,West,273,0.0,6.0,64,0.00,,,0.00,weatherlink.com 1.10,2013-02-16 21:22:00,
2013-02-16 15:37:00,25.2,15.0,30.08,West,273,0.0,6.0,65,0.00,,,0.00,weatherlink.com 1.10,2013-02-16 21:37:00,
2013-02-16 15:52:00,25.5,15.0,30.08,West,273,0.0,5.0,64,0.00,,,0.00,weatherlink.com 1.10,2013-02-16 21:52:00,
2013-02-16 16:07:00,25.5,15.0,30.08,West,274,0.0,3.0,64,0.00,,,0.00,weatherlink.com 1.10,2013-02-16 22:07:00,
2013-02-16 16:22:00,25.3,15.0,30.08,West,274,0.0,3.0,64,0.00,,,0.00,weatherlink.com 1.10,2013-02-16 22:22:00,
2013-02-16 16:37:00,25.4,15.0,30.08,West,274,0.0,3.0,64,0.00,,,0.00,weatherlink.com 1.10,2013-02-16 22:37:00,
2013-02-16 16:52:00,25.3,15.0,30.08,West,274,0.0,4.0,64,0.00,,,0.00,weatherlink.com 1.10,2013-02-16 22:52:00,
2013-02-16 17:07:00,24.8,15.0,30.08,West,273,0.0,1.0,65,0.00,,,0.00,weatherlink.com 1.10,2013-02-16 23:07:00,
2013-02-16 17:22:00,24.5,15.0,30.08,West,273,0.0,2.0,66,0.00,,,0.00,weatherlink.com 1.10,2013-02-16 23:22:00,
2013-02-16 17:37:00,24.0,14.0,30.09,West,273,0.0,1.0,67,0.00,,,0.00,weatherlink.com 1.10,2013-02-16 23:37:00,
2013-02-16 17:52:00,23.5,14.0,30.09,West,274,0.0,0.0,68,0.00,,,0.00,weatherlink.com 1.10,2013-02-16 23:52:00,
2013-02-16 18:07:00,23.0,14.0,30.09,West,274,0.0,0.0,69,0.00,,,0.00,weatherlink.com 1.10,2013-02-17 00:07:00,
2013-02-16 18:22:00,22.3,14.0,30.09,West,274,0.0,0.0,70,0.00,,,0.00,weatherlink.com 1.10,2013-02-17 00:22:00,
2013-02-16 18:37:00,22.0,14.0,30.09,West,274,0.0,0.0,72,0.00,,,0.00,weatherlink.com 1.10,2013-02-17 00:37:00,
2013-02-16 18:52:00,21.5,14.0,30.09,West,273,0.0,0.0,74,0.00,,,0.00,weatherlink.com 1.10,2013-02-17 00:52:00,
2013-02-16 19:07:00,21.3,15.0,30.09,West,273,0.0,1.0,75,0.00,,,0.00,weatherlink.com 1.10,2013-02-17 01:07:00,
2013-02-16 19:22:00,21.1,15.0,30.09,West,273,0.0,0.0,76,0.00,,,0.00,weatherlink.com 1.10,2013-02-17 01:22:00,
2013-02-16 19:37:00,20.9,15.0,30.09,West,273,0.0,1.0,77,0.00,,,0.00,weatherlink.com 1.10,2013-02-17 01:37:00,
2013-02-16 19:52:00,20.9,15.0,30.09,West,274,0.0,1.0,77,0.00,,,0.00,weatherlink.com 1.10,2013-02-17 01:52:00,
2013-02-16 20:07:00,21.0,15.0,30.08,West,274,0.0,2.0,78,0.00,,,0.00,weatherlink.com 1.10,2013-02-17 02:07:00,
2013-02-16 20:22:00,21.0,15.0,30.07,West,273,2.0,2.0,78,0.00,,,0.00,weatherlink.com 1.10,2013-02-17 02:22:00,
2013-02-16 20:37:00,20.9,15.0,30.07,West,274,0.0,2.0,79,0.00,,,0.00,weatherlink.com 1.10,2013-02-17 02:37:00,
2013-02-16 20:52:00,20.9,16.0,30.07,West,273,0.0,3.0,80,0.00,,,0.00,weatherlink.com 1.10,2013-02-17 02:52:00,
2013-02-16 21:07:00,20.9,16.0,30.07,West,273,0.0,3.0,80,0.00,,,0.00,weatherlink.com 1.10,2013-02-17 03:07:00,
2013-02-16 21:22:00,20.8,16.0,30.07,West,273,1.0,2.0,80,0.00,,,0.00,weatherlink.com 1.10,2013-02-17 03:22:00,
2013-02-16 21:37:00,20.7,15.0,30.07,West,273,0.0,3.0,80,0.00,,,0.00,weatherlink.com 1.10,2013-02-17 03:37:00,
2013-02-16 21:52:00,20.6,15.0,30.06,West,273,0.0,3.0,80,0.00,,,0.00,weatherlink.com 1.10,2013-02-17 03:52:00,
2013-02-16 22:07:00,20.2,15.0,30.06,West,273,0.0,3.0,80,0.00,,,0.00,weatherlink.com 1.10,2013-02-17 04:07:00,
2013-02-16 22:22:00,19.8,15.0,30.07,West,273,1.0,3.0,81,0.00,,,0.00,weatherlink.com 1.10,2013-02-17 04:22:00,
2013-02-16 22:37:00,19.3,14.0,30.06,West,273,0.0,3.0,81,0.00,,,0.00,weatherlink.com 1.10,2013-02-17 04:37:00,
2013-02-16 22:52:00,18.9,14.0,30.06,West,273,1.0,3.0,81,0.00,,,0.00,weatherlink.com 1.10,2013-02-17 04:52:00,
2013-02-16 23:07:00,18.8,14.0,30.06,West,273,0.0,4.0,81,0.00,,,0.00,weatherlink.com 1.10,2013-02-17 05:07:00,
2013-02-16 23:22:00,18.5,14.0,30.06,West,272,1.0,4.0,81,0.00,,,0.00,weatherlink.com 1.10,2013-02-17 05:22:00,
2013-02-16 23:37:00,17.9,13.0,30.05,West,272,1.0,3.0,82,0.00,,,0.00,weatherlink.com 1.10,2013-02-17 05:37:00,
2013-02-16 23:52:00,17.8,13.0,30.05,West,272,0.0,3.0,82,0.00,,,0.00,weatherlink.com 1.10,2013-02-17 05:52:00,